The Easy Runner Sodbury Slog
Skip Navigation Links
Results
Team Results
Live Leaderboard
Past Results
Race Stats
Smartphone Results
13 November 2016
HyperLink
Page 1 of 23 (1103 items)
[1]234567...20212223
Pos
Bib No
Fav
Share
Print
Name
Time
Chip Time
Category
Cat Pos
Gender
Gen Pos
Club
Pace
11349David GREEN1:00:15.91:00:14.9Top 31Male1UBACCC10.0 m/hr
21370Andy SALMON1:01:06.81:01:06.8Top 32Male2UBACCC 9.8 m/hr
31350Kit GRIERSON1:01:21.21:01:21.2Top 33Male3UBACCC 9.8 m/hr
4534Chris MCMILLAN1:01:45.91:01:45.2SenM1Male4WESTON AC 9.7 m/hr
5578Ciaran MCQUAIDE1:02:22.81:02:22.0SenM2Male5BRISTOL & WEST AC 9.6 m/hr
61375Ben TOPLEY1:03:31.41:03:31.4SenM3Male6UBACCC 9.4 m/hr
71051Anthony GLOVER1:03:52.91:03:52.5VM401Male7NORTHERN IRELAND MASTERS AA 9.4 m/hr
81347Tom DOBRA1:04:00.71:03:59.4SenM4Male8UBACCC 9.4 m/hr
91379Scott WATKINS1:05:03.11:05:01.7SenM5Male9UBACCC 9.2 m/hr
101346Will DAVIDSON1:05:31.31:05:31.3SenM6Male10UBACCC 9.2 m/hr
11581Martin BARTLETT1:05:57.21:05:56.0SenM7Male11  9.1 m/hr
121046Rob COWLARD1:06:36.71:06:35.3VM402Male12THORNBURY RUNNING CLUB 9.0 m/hr
132Dermot BAILIE1:06:55.61:06:54.5SenM8Male13EDINBURGH ATHLETIC CLUB 9.0 m/hr
141221Joseph DONWORTH1:07:02.71:07:01.7SenM9Male14FROME RUNNING CLUB 8.9 m/hr
15836William GANLEY1:07:43.81:07:39.3SenM10Male15BITTON ROAD RUNNERS 8.9 m/hr
161016Annabel GRANGER1:08:18.41:08:17.2Top 31Female1BRISTOL & WEST AC 8.8 m/hr
171362Tom MCGRATH1:08:34.51:08:34.0SenM11Male16UBACCC 8.7 m/hr
181360James LEWIS1:08:44.91:08:44.9SenM12Male17UBACCC 8.7 m/hr
19860Daryl PHILLIPS1:08:57.61:08:55.7SenM13Male18BRISTOL & WEST AC 8.7 m/hr
201355Laurence HILL1:08:58.31:08:52.0SenM14Male19UBACCC 8.7 m/hr
211133Simon TIMBRELL1:08:59.91:08:58.1VM403Male20CESSON TWINNING 8.7 m/hr
221186Lee STONE1:09:16.71:09:14.7VM404Male21FROME RUNNING CLUB 8.7 m/hr
231380Phillipa WILLIAMS1:09:21.51:09:20.7Top 32Female2UBACCC 8.7 m/hr
24729Dan LUTON1:10:06.31:10:05.1SenM15Male22  8.6 m/hr
256Paul O'MARA1:10:09.61:10:07.8SenM16Male23TYNE BRIDGE HARRIERS 8.6 m/hr
26163Steven JAMES1:10:11.71:10:09.6VM405Male24  8.5 m/hr
27326Colin TRAER1:10:32.11:10:29.0SenM17Male25BRISTOL & WEST AC 8.5 m/hr
28362Henry ORNA1:10:46.81:10:38.1SenM18Male26TOWN AND COUNTRY HARRIERS 8.5 m/hr
291373James THOMPSON1:10:59.21:10:53.2SenM19Male27UBACCC 8.5 m/hr
30349William SMITH1:11:04.51:11:03.5SenM20Male28SOUTHVILLE RC 8.4 m/hr
31206Thomas MILLER1:11:06.71:11:05.7SenM21Male29WICKWAR WUNNERS 8.4 m/hr
321354Mark HAWORTH1:11:10.51:11:10.0SenM22Male30UBACCC 8.4 m/hr
33227Leyton FLEET1:11:14.51:11:11.3VM406Male31FOREST OF DEAN AC 8.4 m/hr
34872Paul OXLEY1:11:16.61:11:10.2SenM23Male32  8.4 m/hr
35108Nick LEWIS1:11:28.31:10:56.1VM407Male33ALMOST ATHLETES 8.4 m/hr
36531Josh HARRIS1:11:28.41:11:27.4VM408Male34WESTON AC 8.4 m/hr
37800Matthew WHEELER1:11:56.31:11:55.1VM409Male35WESTON AC 8.3 m/hr
38899Mark TAYLOR1:12:08.31:12:06.5VM4010Male36FRAMPTON COTTERELL HARRIERS 8.3 m/hr
39109Gemma HARGRAVES1:12:14.81:12:13.6Top 33Female3ALMOST ATHLETES 8.3 m/hr
40663Andrew LANE1:12:21.71:12:18.4SenM24Male37  8.3 m/hr
41464Rob BRANCH1:12:22.01:12:14.1SenM25Male38SOUTHVILLE RC 8.3 m/hr
421181Peter LARMAN1:12:30.01:12:27.4VM4011Male39FROME RUNNING CLUB 8.3 m/hr
4328Clive ANDREWS1:12:40.41:12:38.4VM501Male40BLACK PEAR JOGGERS 8.3 m/hr
44919Matt JOHNSTONE1:12:40.91:12:38.2SenM26Male41THORNBURY RUNNING CLUB 8.3 m/hr
451356Tom HUTCHINSON1:12:52.91:12:48.3SenM27Male42UBACCC 8.2 m/hr
4650Matthew DURBIN1:13:03.81:13:00.8SenM28Male43  8.2 m/hr
47234John RUSSELL1:13:04.21:13:00.9VM4012Male44FOREST OF DEAN AC 8.2 m/hr
48378Martin KILB1:13:32.91:13:22.1VM4013Male45GREAT WESTERN RUNNERS 8.2 m/hr
49968Will HILLIER1:13:39.61:13:36.4VM4014Male46GREAT WESTERN RUNNERS 8.1 m/hr
501417Richard HALL1:13:42.61:13:34.6SenM29Male47  8.1 m/hr
Page 1 of 23 (1103 items)
[1]234567...20212223
fb

HyperLink Copyright (c) G Vincent, 2017